Flag for Germany Weather past 2 weeks in Celle, Lower Saxony, Germany

Now
43 °F

Passing clouds.


Feels Like: 40 °F
Forecast: 38 / 59 °F
Wind: 5 mph from Southwest

Location: Celle Airport

Current Time: Mar 7, 2015 at 3:20:21 AM

Latest Report: Mar 7, 2015 at 2:20 AM


Visibility: N/A

Pressure: 30.48 "Hg

Humidity: 71%

Dew point: 34 °F

Location of CelleLocation

Historic Weather in Celle — Graph

°F

Celle temperature yesterday

Maximum temperature yesterday: 48 °F (at 2:20 PM)
Minimum temperature yesterday: 39 °F (at 1:20 AM)
Average temperature yesterday: 43 °F

Past Weeks' High & Low Weather Summary

 TemperatureHumidityPressure
High48 °F (Feb 26, 3:20 PM)100% (Feb 23, 8:20 AM)30.57 "Hg (Feb 23, 8:20 AM)
Low30 °F (Feb 20, 2:20 AM)40% (Feb 28, 4:20 PM)29.30 "Hg (Feb 21, 9:20 AM)
Average40 °F79%29.88 "Hg
* Reported Feb 20 1:20 AM — Mar 7 1:20 AM, Celle, Weather by CustomWeather, © 2015

Note: Actual official high and low records may vary slightly from our data, if they occured in-between our weather recording intervals... More about our weather records

Advertising

Celle weather history for previous 24 hours

 ConditionsComfort  
Time TempWeatherWind HumidityBarometerVisibility
1:20 AM
Sat, Mar 7
43 °FPassing clouds.3 mph71%30.51 "HgN/A
12:20 AM43 °FPassing clouds.5 mph71%30.51 "HgN/A
11:20 PM
Fri, Mar 6
43 °FPassing clouds.6 mph71%30.51 "HgN/A
10:20 PM45 °FPassing clouds.7 mph71%30.51 "HgN/A
9:20 PM45 °FPassing clouds.8 mph71%30.51 "HgN/A
8:20 PM45 °FPassing clouds.6 mph71%30.54 "HgN/A
7:20 PM45 °FPassing clouds.7 mph71%30.54 "HgN/A
6:20 PM46 °FPassing clouds.8 mph66%30.54 "HgN/A
5:20 PM46 °FPartly sunny.9 mph66%30.51 "HgN/A
4:20 PM46 °FPartly sunny.14 mph66%30.51 "HgN/A
3:20 PM48 °FPartly sunny.14 mph62%30.51 "HgN/A
2:20 PM48 °FPartly sunny.15 mph62%30.51 "HgN/A
1:20 PM46 °FPartly sunny.12 mph66%30.51 "HgN/A
12:20 PM45 °FPartly sunny.14 mph71%30.54 "HgN/A
11:20 AM43 °FBroken clouds.12 mph76%30.54 "HgN/A
10:20 AM43 °FPartly sunny.10 mph76%30.54 "HgN/A
9:20 AM41 °FBroken clouds.9 mph81%30.54 "HgN/A
8:20 AM41 °FPartly sunny.8 mph81%30.54 "HgN/A
7:20 AM41 °FPartly sunny.8 mph81%30.54 "HgN/A
6:20 AM41 °FPartly cloudy.8 mph81%30.54 "HgN/A
5:20 AM41 °FPassing clouds.8 mph81%30.54 "HgN/A
4:20 AM41 °FPassing clouds.7 mph81%30.54 "HgN/A
3:20 AM41 °FPassing clouds.7 mph81%30.54 "HgN/A
Weather by CustomWeather, © 2015

See weather overviewHow to use our weather pages